Time,TemperatureF,DewpointF,PressureIn,WindDirection,WindDirectionDegrees,WindSpeedMPH,WindSpeedGustMPH,Humidity,HourlyPrecipIn,Conditions,Clouds,dailyrainin,SoftwareType,DateUTC
2013-02-24 00:00:00,23.0,18.0,29.88,SW,225,0.0,0.0,81,0.00,,,0.00,WUHU21623XXSP,2013-02-24 05:00:00,
2013-02-24 00:05:00,23.0,18.0,29.88,SW,225,0.0,0.0,81,0.00,,,0.00,WUHU21623XXSP,2013-02-24 05:05:00,
2013-02-24 00:10:00,22.8,17.9,29.88,SSW,202,0.7,0.7,81,0.00,,,0.00,WUHU21623XXSP,2013-02-24 05:10:00,
2013-02-24 00:15:00,22.8,17.9,29.88,SW,225,1.6,3.1,81,0.00,,,0.00,WUHU21623XXSP,2013-02-24 05:15:00,
2013-02-24 00:20:00,22.8,17.9,29.88,SW,225,0.0,1.6,81,0.00,,,0.00,WUHU21623XXSP,2013-02-24 05:20:00,
2013-02-24 00:25:00,22.8,17.9,29.88,SSW,202,0.0,3.4,81,0.00,,,0.00,WUHU21623XXSP,2013-02-24 05:25:00,
2013-02-24 00:30:00,22.8,17.9,29.88,SSW,202,3.4,3.4,81,0.00,,,0.00,WUHU21623XXSP,2013-02-24 05:30:00,
2013-02-24 00:35:00,22.8,17.9,29.88,SW,225,0.0,3.4,81,0.00,,,0.00,WUHU21623XXSP,2013-02-24 05:35:00,
2013-02-24 00:40:00,22.6,17.7,29.88,SW,225,1.1,1.1,81,0.00,,,0.00,WUHU21623XXSP,2013-02-24 05:40:00,
2013-02-24 00:45:00,22.6,17.7,29.88,SSE,157,4.3,4.3,81,0.00,,,0.00,WUHU21623XXSP,2013-02-24 05:45:00,
2013-02-24 00:50:00,22.6,17.7,29.88,SW,225,0.0,4.3,81,0.00,,,0.00,WUHU21623XXSP,2013-02-24 05:50:00,
2013-02-24 00:55:00,22.8,17.9,29.88,SSW,202,2.7,2.7,81,0.00,,,0.00,WUHU21623XXSP,2013-02-24 05:55:00,
2013-02-24 01:00:00,22.8,17.9,29.88,SSW,202,0.0,2.7,81,0.00,,,0.00,WUHU21623XXSP,2013-02-24 06:00:00,
2013-02-24 01:05:00,22.8,17.9,29.88,SW,225,0.0,2.7,81,0.00,,,0.00,WUHU21623XXSP,2013-02-24 06:05:00,
2013-02-24 01:10:00,22.8,17.9,29.88,SSW,202,0.0,0.0,81,0.00,,,0.00,WUHU21623XXSP,2013-02-24 06:10:00,
2013-02-24 01:15:00,22.8,17.9,29.88,SW,225,1.1,1.1,81,0.00,,,0.00,WUHU21623XXSP,2013-02-24 06:15:00,
2013-02-24 01:20:00,22.8,17.9,29.88,SSW,202,2.5,4.0,81,0.00,,,0.00,WUHU21623XXSP,2013-02-24 06:20:00,
2013-02-24 01:25:00,22.8,17.9,29.88,SW,225,4.7,5.1,81,0.00,,,0.00,WUHU21623XXSP,2013-02-24 06:25:00,
2013-02-24 01:30:00,22.8,17.9,29.88,SSW,202,0.0,5.1,81,0.00,,,0.00,WUHU21623XXSP,2013-02-24 06:30:00,
2013-02-24 01:35:00,22.8,18.1,29.89,SW,225,0.0,0.0,82,0.00,,,0.00,WUHU21623XXSP,2013-02-24 06:35:00,
2013-02-24 01:40:00,22.8,18.1,29.89,SSW,202,1.6,1.6,82,0.00,,,0.00,WUHU21623XXSP,2013-02-24 06:40:00,
2013-02-24 01:45:00,22.8,18.1,29.89,SW,225,2.9,2.9,82,0.00,,,0.00,WUHU21623XXSP,2013-02-24 06:45:00,
2013-02-24 01:50:00,22.8,18.1,29.89,SW,225,0.0,2.9,82,0.00,,,0.00,WUHU21623XXSP,2013-02-24 06:50:00,
2013-02-24 01:55:00,22.8,18.1,29.90,SSW,202,0.0,4.9,82,0.00,,,0.00,WUHU21623XXSP,2013-02-24 06:55:00,
2013-02-24 02:00:00,22.8,18.1,29.89,SW,225,0.0,4.9,82,0.00,,,0.00,WUHU21623XXSP,2013-02-24 07:00:00,
2013-02-24 02:05:00,22.8,18.1,29.90,SW,225,0.0,0.0,82,0.00,,,0.00,WUHU21623XXSP,2013-02-24 07:05:00,
2013-02-24 02:10:00,22.8,18.1,29.90,SSW,202,0.9,0.9,82,0.00,,,0.00,WUHU21623XXSP,2013-02-24 07:10:00,
2013-02-24 02:15:00,22.8,18.1,29.91,SSW,202,3.8,3.8,82,0.00,,,0.00,WUHU21623XXSP,2013-02-24 07:15:00,
2013-02-24 02:20:00,22.8,18.1,29.91,SSW,202,0.0,6.9,82,0.00,,,0.00,WUHU21623XXSP,2013-02-24 07:20:00,
2013-02-24 02:25:00,22.8,18.1,29.91,SW,225,2.2,6.9,82,0.00,,,0.00,WUHU21623XXSP,2013-02-24 07:25:00,
2013-02-24 02:30:00,22.8,18.4,29.90,SSW,202,0.0,2.2,83,0.00,,,0.00,WUHU21623XXSP,2013-02-24 07:30:00,
2013-02-24 02:35:00,22.8,18.4,29.90,SSW,202,0.0,0.0,83,0.00,,,0.00,WUHU21623XXSP,2013-02-24 07:35:00,
2013-02-24 02:40:00,22.8,18.4,29.90,SSW,202,0.0,0.0,83,0.00,,,0.00,WUHU21623XXSP,2013-02-24 07:40:00,
2013-02-24 02:45:00,22.8,18.4,29.91,SSW,202,0.0,0.0,83,0.00,,,0.00,WUHU21623XXSP,2013-02-24 07:45:00,
2013-02-24 02:50:00,22.8,18.4,29.91,SW,225,0.0,0.0,83,0.00,,,0.00,WUHU21623XXSP,2013-02-24 07:50:00,
2013-02-24 02:55:00,22.8,18.4,29.91,South,180,0.0,5.1,83,0.00,,,0.00,WUHU21623XXSP,2013-02-24 07:55:00,
2013-02-24 03:00:00,22.8,18.4,29.91,SW,225,0.0,5.1,83,0.00,,,0.00,WUHU21623XXSP,2013-02-24 08:00:00,
2013-02-24 03:05:00,22.8,18.4,29.91,SW,225,0.0,0.0,83,0.00,,,0.00,WUHU21623XXSP,2013-02-24 08:05:00,
2013-02-24 03:10:00,22.8,18.7,29.91,SSW,202,3.6,3.6,84,0.00,,,0.00,WUHU21623XXSP,2013-02-24 08:10:00,
2013-02-24 03:15:00,22.8,18.7,29.91,SW,225,0.0,3.6,84,0.00,,,0.00,WUHU21623XXSP,2013-02-24 08:15:00,
2013-02-24 03:20:00,22.8,18.7,29.91,SSW,202,4.0,4.0,84,0.00,,,0.00,WUHU21623XXSP,2013-02-24 08:20:00,
2013-02-24 03:25:00,22.8,18.7,29.91,SSW,202,0.0,4.0,84,0.00,,,0.00,WUHU21623XXSP,2013-02-24 08:25:00,
2013-02-24 03:30:00,22.8,18.7,29.91,SSW,202,0.0,0.0,84,0.00,,,0.00,WUHU21623XXSP,2013-02-24 08:30:00,
2013-02-24 03:35:00,22.8,18.7,29.91,SSW,202,0.0,0.0,84,0.00,,,0.00,WUHU21623XXSP,2013-02-24 08:35:00,
2013-02-24 03:40:00,22.8,18.7,29.91,SSW,202,0.0,0.0,84,0.00,,,0.00,WUHU21623XXSP,2013-02-24 08:40:00,
2013-02-24 03:45:00,22.8,18.7,29.91,SSW,202,2.2,2.2,84,0.00,,,0.00,WUHU21623XXSP,2013-02-24 08:45:00,
2013-02-24 03:50:00,22.8,18.7,29.91,SW,225,1.3,2.2,84,0.00,,,0.00,WUHU21623XXSP,2013-02-24 08:50:00,
2013-02-24 03:55:00,22.8,18.7,29.91,SW,225,3.4,3.6,84,0.00,,,0.00,WUHU21623XXSP,2013-02-24 08:55:00,
2013-02-24 04:00:00,22.8,18.9,29.91,SW,225,0.0,3.6,85,0.00,,,0.00,WUHU21623XXSP,2013-02-24 09:00:00,
2013-02-24 04:05:00,22.8,18.7,29.91,SSW,202,1.6,1.6,84,0.00,,,0.00,WUHU21623XXSP,2013-02-24 09:05:00,
2013-02-24 04:10:00,22.8,18.9,29.91,SSW,202,2.0,2.0,85,0.00,,,0.00,WUHU21623XXSP,2013-02-24 09:10:00,
2013-02-24 04:15:00,22.8,18.9,29.91,SW,225,0.0,4.3,85,0.00,,,0.00,WUHU21623XXSP,2013-02-24 09:15:00,
2013-02-24 04:20:00,22.8,18.9,29.91,SSW,202,0.0,5.8,85,0.00,,,0.00,WUHU21623XXSP,2013-02-24 09:20:00,
2013-02-24 04:25:00,22.8,18.9,29.91,SSW,202,0.0,5.8,85,0.00,,,0.00,WUHU21623XXSP,2013-02-24 09:25:00,
2013-02-24 04:30:00,22.8,18.9,29.91,SSW,202,5.1,5.1,85,0.00,,,0.00,WUHU21623XXSP,2013-02-24 09:30:00,
2013-02-24 04:35:00,22.8,18.9,29.91,SSW,202,1.1,5.1,85,0.00,,,0.00,WUHU21623XXSP,2013-02-24 09:35:00,
2013-02-24 04:40:00,22.8,18.9,29.91,SSW,202,0.0,2.5,85,0.00,,,0.00,WUHU21623XXSP,2013-02-24 09:40:00,
2013-02-24 04:45:00,22.8,18.9,29.91,SSW,202,0.0,2.2,85,0.00,,,0.00,WUHU21623XXSP,2013-02-24 09:45:00,
2013-02-24 04:50:00,23.0,19.1,29.91,SSW,202,0.0,0.0,85,0.00,,,0.00,WUHU21623XXSP,2013-02-24 09:50:00,
2013-02-24 04:55:00,22.8,19.1,29.91,SW,225,0.0,0.0,85,0.00,,,0.00,WUHU21623XXSP,2013-02-24 09:55:00,
2013-02-24 05:00:00,23.0,19.1,29.91,SSW,202,0.0,0.0,85,0.00,,,0.00,WUHU21623XXSP,2013-02-24 10:00:00,
2013-02-24 05:05:00,23.0,18.9,29.91,SSW,202,0.0,0.0,85,0.00,,,0.00,WUHU21623XXSP,2013-02-24 10:05:00,
2013-02-24 05:10:00,22.8,18.9,29.91,SSW,202,0.0,0.0,85,0.00,,,0.00,WUHU21623XXSP,2013-02-24 10:10:00,
2013-02-24 05:15:00,23.0,19.1,29.91,SW,225,0.0,0.0,85,0.00,,,0.00,WUHU21623XXSP,2013-02-24 10:15:00,
2013-02-24 05:20:00,23.0,19.1,29.91,SSW,202,0.0,0.0,85,0.00,,,0.00,WUHU21623XXSP,2013-02-24 10:20:00,
2013-02-24 05:25:00,23.0,19.1,29.92,SSW,202,0.0,0.0,85,0.00,,,0.00,WUHU21623XXSP,2013-02-24 10:25:00,
2013-02-24 05:30:00,23.0,19.1,29.91,SW,225,0.0,0.0,85,0.00,,,0.00,WUHU21623XXSP,2013-02-24 10:30:00,
2013-02-24 05:35:00,23.0,19.1,29.92,SSW,202,0.0,0.0,85,0.00,,,0.00,WUHU21623XXSP,2013-02-24 10:35:00,
2013-02-24 05:40:00,23.0,19.1,29.91,SSW,202,0.0,0.0,86,0.00,,,0.00,WUHU21623XXSP,2013-02-24 10:40:00,
2013-02-24 05:45:00,23.0,19.4,29.92,South,180,0.0,0.0,86,0.00,,,0.00,WUHU21623XXSP,2013-02-24 10:45:00,
2013-02-24 05:50:00,23.0,19.4,29.92,SW,225,0.0,0.0,86,0.00,,,0.00,WUHU21623XXSP,2013-02-24 10:50:00,
2013-02-24 05:55:00,23.0,19.4,29.92,SW,225,0.0,0.0,86,0.00,,,0.00,WUHU21623XXSP,2013-02-24 10:55:00,
2013-02-24 06:00:00,22.8,19.2,29.92,SSW,202,0.0,0.0,86,0.00,,,0.00,WUHU21623XXSP,2013-02-24 11:00:00,
2013-02-24 06:05:00,22.8,19.2,29.92,South,180,0.0,0.0,86,0.00,,,0.00,WUHU21623XXSP,2013-02-24 11:05:00,
2013-02-24 06:10:00,22.6,19.2,29.93,SSW,202,0.0,0.0,86,0.00,,,0.00,WUHU21623XXSP,2013-02-24 11:10:00,
2013-02-24 06:15:00,22.6,19.0,29.93,SW,225,0.0,0.0,86,0.00,,,0.00,WUHU21623XXSP,2013-02-24 11:15:00,
2013-02-24 06:20:00,22.3,18.9,29.93,SSW,202,0.0,0.0,86,0.00,,,0.00,WUHU21623XXSP,2013-02-24 11:20:00,
2013-02-24 06:25:00,22.3,18.7,29.93,SSW,202,0.0,0.0,86,0.00,,,0.00,WUHU21623XXSP,2013-02-24 11:25:00,
2013-02-24 06:30:00,22.1,18.5,29.93,SSW,202,0.0,0.0,86,0.00,,,0.00,WUHU21623XXSP,2013-02-24 11:30:00,
2013-02-24 06:35:00,21.9,18.3,29.93,SSW,202,0.0,0.0,86,0.00,,,0.00,WUHU21623XXSP,2013-02-24 11:35:00,
2013-02-24 06:40:00,21.9,18.3,29.94,SSW,202,0.0,0.0,86,0.00,,,0.00,WUHU21623XXSP,2013-02-24 11:40:00,
2013-02-24 06:45:00,21.7,18.1,29.93,SW,225,0.0,0.0,86,0.00,,,0.00,WUHU21623XXSP,2013-02-24 11:45:00,
2013-02-24 06:50:00,21.6,18.1,29.94,SSW,202,0.0,0.0,86,0.00,,,0.00,WUHU21623XXSP,2013-02-24 11:50:00,
2013-02-24 06:55:00,21.6,18.0,29.94,SSW,202,0.0,0.0,86,0.00,,,0.00,WUHU21623XXSP,2013-02-24 11:55:00,
2013-02-24 07:00:00,21.4,17.8,29.94,SSW,202,0.0,0.0,86,0.00,,,0.00,WUHU21623XXSP,2013-02-24 12:00:00,
2013-02-24 07:05:00,21.4,17.8,29.94,SSW,202,0.0,0.0,86,0.00,,,0.00,WUHU21623XXSP,2013-02-24 12:05:00,
2013-02-24 07:10:00,21.4,17.8,29.94,SSW,202,0.0,0.0,86,0.00,,,0.00,WUHU21623XXSP,2013-02-24 12:10:00,
2013-02-24 07:15:00,21.4,17.8,29.94,SSW,202,0.0,0.0,86,0.00,,,0.00,WUHU21623XXSP,2013-02-24 12:15:00,
2013-02-24 07:20:00,21.0,17.4,29.94,SSW,202,0.0,0.0,86,0.00,,,0.00,WUHU21623XXSP,2013-02-24 12:20:00,
2013-02-24 07:25:00,21.0,17.4,29.94,SSW,202,0.0,0.0,86,0.00,,,0.00,WUHU21623XXSP,2013-02-24 12:25:00,
2013-02-24 07:30:00,21.0,17.4,29.95,SSW,202,0.0,0.0,86,0.00,,,0.00,WUHU21623XXSP,2013-02-24 12:30:00,
2013-02-24 07:35:00,21.0,17.4,29.94,SSW,202,0.0,0.0,86,0.00,,,0.00,WUHU21623XXSP,2013-02-24 12:35:00,
2013-02-24 07:40:00,21.0,17.4,29.95,SSW,202,0.0,0.0,86,0.00,,,0.00,WUHU21623XXSP,2013-02-24 12:40:00,
2013-02-24 07:45:00,21.4,17.8,29.95,SSW,202,0.0,0.0,86,0.00,,,0.00,WUHU21623XXSP,2013-02-24 12:45:00,
2013-02-24 07:50:00,21.4,17.8,29.95,SSW,202,0.0,0.0,86,0.00,,,0.00,WUHU21623XXSP,2013-02-24 12:50:00,
2013-02-24 07:55:00,21.6,17.8,29.94,SSW,202,0.0,0.0,87,0.00,,,0.00,WUHU21623XXSP,2013-02-24 12:55:00,
2013-02-24 08:00:00,21.9,18.6,29.95,SSW,202,0.0,0.0,87,0.00,,,0.00,WUHU21623XXSP,2013-02-24 13:00:00,
2013-02-24 08:05:00,21.9,18.6,29.95,SW,225,0.0,0.0,87,0.00,,,0.00,WUHU21623XXSP,2013-02-24 13:05:00,
2013-02-24 08:10:00,22.1,18.8,29.95,SW,225,0.0,0.0,87,0.00,,,0.00,WUHU21623XXSP,2013-02-24 13:10:00,
2013-02-24 08:15:00,22.3,18.9,29.96,SW,225,0.0,0.0,87,0.00,,,0.00,WUHU21623XXSP,2013-02-24 13:15:00,
2013-02-24 08:20:00,22.6,19.1,29.95,SSW,202,0.0,0.0,87,0.00,,,0.00,WUHU21623XXSP,2013-02-24 13:20:00,
2013-02-24 08:25:00,22.8,19.5,29.96,SW,225,0.0,0.0,87,0.00,,,0.00,WUHU21623XXSP,2013-02-24 13:25:00,
2013-02-24 08:30:00,22.8,19.5,29.96,South,180,0.0,0.0,87,0.00,,,0.00,WUHU21623XXSP,2013-02-24 13:30:00,
2013-02-24 08:35:00,23.2,19.9,29.96,SSW,202,0.0,0.0,87,0.00,,,0.00,WUHU21623XXSP,2013-02-24 13:35:00,
2013-02-24 08:40:00,23.4,20.0,29.96,SW,225,0.0,0.0,87,0.00,,,0.00,WUHU21623XXSP,2013-02-24 13:40:00,
2013-02-24 08:45:00,23.7,20.2,29.96,SW,225,0.0,0.0,87,0.00,,,0.00,WUHU21623XXSP,2013-02-24 13:45:00,
2013-02-24 08:50:00,23.9,20.6,29.96,South,180,0.0,0.0,87,0.00,,,0.00,WUHU21623XXSP,2013-02-24 13:50:00,
2013-02-24 08:55:00,24.1,20.8,29.96,SW,225,0.0,0.0,87,0.00,,,0.00,WUHU21623XXSP,2013-02-24 13:55:00,
2013-02-24 09:00:00,24.4,21.1,29.96,SSW,202,0.0,0.0,87,0.00,,,0.00,WUHU21623XXSP,2013-02-24 14:00:00,
2013-02-24 09:05:00,24.6,21.3,29.96,SW,225,0.0,0.0,87,0.00,,,0.00,WUHU21623XXSP,2013-02-24 14:05:00,
2013-02-24 09:10:00,24.6,21.3,29.97,SW,225,0.0,0.0,87,0.00,,,0.00,WUHU21623XXSP,2013-02-24 14:10:00,
2013-02-24 09:15:00,25.0,21.6,29.96,SSW,202,0.0,0.0,87,0.00,,,0.00,WUHU21623XXSP,2013-02-24 14:15:00,
2013-02-24 09:20:00,25.2,22.1,29.96,SSW,202,0.0,0.0,88,0.00,,,0.00,WUHU21623XXSP,2013-02-24 14:20:00,
2013-02-24 09:25:00,25.3,22.3,29.97,SW,225,0.0,0.0,88,0.00,,,0.00,WUHU21623XXSP,2013-02-24 14:25:00,
2013-02-24 09:30:00,25.5,22.4,29.97,SW,225,0.0,0.0,88,0.00,,,0.00,WUHU21623XXSP,2013-02-24 14:30:00,
2013-02-24 09:35:00,25.7,22.3,29.97,SSW,202,0.0,0.0,87,0.00,,,0.00,WUHU21623XXSP,2013-02-24 14:35:00,
2013-02-24 09:40:00,25.9,22.5,29.97,SSW,202,0.0,0.0,87,0.00,,,0.00,WUHU21623XXSP,2013-02-24 14:40:00,
2013-02-24 09:45:00,26.2,22.9,29.97,North,0,0.0,0.0,87,0.00,,,0.00,WUHU21623XXSP,2013-02-24 14:45:00,
2013-02-24 09:50:00,26.4,23.0,29.97,SW,225,0.0,0.0,87,0.00,,,0.00,WUHU21623XXSP,2013-02-24 14:50:00,
2013-02-24 09:55:00,26.6,23.2,29.97,SSW,202,0.0,0.0,87,0.00,,,0.00,WUHU21623XXSP,2013-02-24 14:55:00,
2013-02-24 10:00:00,27.0,23.6,29.97,SW,225,0.0,0.0,87,0.00,,,0.00,WUHU21623XXSP,2013-02-24 15:00:00,
2013-02-24 10:05:00,27.1,23.8,29.97,SW,225,0.0,0.0,87,0.00,,,0.00,WUHU21623XXSP,2013-02-24 15:05:00,
2013-02-24 10:10:00,27.3,23.6,29.98,SSW,202,0.0,0.0,86,0.00,,,0.00,WUHU21623XXSP,2013-02-24 15:10:00,
2013-02-24 10:15:00,27.5,24.1,29.98,SW,225,0.0,0.0,87,0.00,,,0.00,WUHU21623XXSP,2013-02-24 15:15:00,
2013-02-24 10:20:00,27.7,24.0,29.98,SW,225,0.0,0.0,86,0.00,,,0.00,WUHU21623XXSP,2013-02-24 15:20:00,
2013-02-24 10:25:00,28.0,24.4,29.98,SSW,202,0.0,0.0,86,0.00,,,0.00,WUHU21623XXSP,2013-02-24 15:25:00,
2013-02-24 10:30:00,28.2,24.5,29.98,SW,225,0.0,0.0,86,0.00,,,0.00,WUHU21623XXSP,2013-02-24 15:30:00,
2013-02-24 10:35:00,28.2,24.5,29.98,SW,225,0.0,0.0,86,0.00,,,0.00,WUHU21623XXSP,2013-02-24 15:35:00,
2013-02-24 10:40:00,28.6,24.9,29.98,SSW,202,0.0,0.0,86,0.00,,,0.00,WUHU21623XXSP,2013-02-24 15:40:00,
2013-02-24 10:45:00,28.9,25.0,29.98,South,180,0.0,0.0,85,0.00,,,0.00,WUHU21623XXSP,2013-02-24 15:45:00,
2013-02-24 10:50:00,29.3,25.2,29.98,SW,225,0.0,0.0,85,0.00,,,0.00,WUHU21623XXSP,2013-02-24 15:50:00,
2013-02-24 10:55:00,29.8,25.7,29.99,SW,225,0.0,0.0,85,0.00,,,0.00,WUHU21623XXSP,2013-02-24 15:55:00,
2013-02-24 11:00:00,30.4,26.1,29.99,SW,225,0.0,0.0,85,0.00,,,0.00,WUHU21623XXSP,2013-02-24 16:00:00,
2013-02-24 11:05:00,30.7,26.5,29.99,SW,225,0.0,0.0,84,0.00,,,0.00,WUHU21623XXSP,2013-02-24 16:05:00,
2013-02-24 11:10:00,31.1,26.9,29.99,SW,225,0.0,0.0,84,0.00,,,0.00,WUHU21623XXSP,2013-02-24 16:10:00,
2013-02-24 11:15:00,31.6,26.7,29.99,SW,225,0.0,0.0,83,0.00,,,0.00,WUHU21623XXSP,2013-02-24 16:15:00,
2013-02-24 11:20:00,31.8,27.1,29.99,SSW,202,0.0,0.0,82,0.00,,,0.00,WUHU21623XXSP,2013-02-24 16:20:00,
2013-02-24 11:25:00,32.2,27.0,29.99,SSW,202,0.0,0.0,82,0.00,,,0.00,WUHU21623XXSP,2013-02-24 16:25:00,
2013-02-24 11:30:00,32.4,27.2,29.99,SSW,202,0.0,0.0,81,0.00,,,0.00,WUHU21623XXSP,2013-02-24 16:30:00,
2013-02-24 11:35:00,32.5,27.4,29.99,SSW,202,0.0,0.0,81,0.00,,,0.00,WUHU21623XXSP,2013-02-24 16:35:00,
2013-02-24 11:40:00,32.5,27.1,29.99,SW,225,0.0,0.0,80,0.00,,,0.00,WUHU21623XXSP,2013-02-24 16:40:00,
2013-02-24 11:45:00,32.7,27.1,29.99,SW,225,0.0,0.0,80,0.00,,,0.00,WUHU21623XXSP,2013-02-24 16:45:00,
2013-02-24 11:50:00,32.7,26.9,30.00,SSW,202,0.0,0.0,79,0.00,,,0.00,WUHU21623XXSP,2013-02-24 16:50:00,
2013-02-24 11:55:00,32.9,27.1,30.00,NNW,337,1.1,5.4,79,0.00,,,0.00,WUHU21623XXSP,2013-02-24 16:55:00,
2013-02-24 12:00:00,33.3,27.1,30.00,SW,225,5.8,5.8,78,0.00,,,0.00,WUHU21623XXSP,2013-02-24 17:00:00,
2013-02-24 12:05:00,33.6,27.4,29.99,SW,225,1.1,5.8,78,0.00,,,0.00,WUHU21623XXSP,2013-02-24 17:05:00,
2013-02-24 12:10:00,33.8,27.2,30.00,SSW,202,4.5,8.7,77,0.00,,,0.00,WUHU21623XXSP,2013-02-24 17:10:00,
2013-02-24 12:15:00,34.3,27.8,30.00,SW,225,0.0,8.7,77,0.00,,,0.00,WUHU21623XXSP,2013-02-24 17:15:00,
2013-02-24 12:20:00,34.3,27.5,30.00,SW,225,6.5,7.8,76,0.00,,,0.00,WUHU21623XXSP,2013-02-24 17:20:00,
2013-02-24 12:25:00,34.3,27.1,30.00,North,0,5.4,7.8,75,0.00,,,0.00,WUHU21623XXSP,2013-02-24 17:25:00,
2013-02-24 12:30:00,34.5,27.3,30.00,NNW,337,6.7,7.8,75,0.00,,,0.00,WUHU21623XXSP,2013-02-24 17:30:00,
2013-02-24 12:35:00,34.7,27.2,30.00,NNW,337,2.0,6.7,74,0.00,,,0.00,WUHU21623XXSP,2013-02-24 17:35:00,
2013-02-24 12:40:00,34.7,26.9,30.00,SSW,202,0.0,6.3,73,0.00,,,0.00,WUHU21623XXSP,2013-02-24 17:40:00,
2013-02-24 12:45:00,34.5,26.9,30.00,SW,225,3.8,4.5,73,0.00,,,0.00,WUHU21623XXSP,2013-02-24 17:45:00,
2013-02-24 12:50:00,34.3,26.5,30.01,NNW,337,7.8,12.1,73,0.00,,,0.00,WUHU21623XXSP,2013-02-24 17:50:00,
2013-02-24 12:55:00,34.3,26.5,30.00,NNW,337,3.1,12.1,73,0.00,,,0.00,WUHU21623XXSP,2013-02-24 17:55:00,
2013-02-24 13:00:00,34.5,26.7,30.01,NNW,337,5.8,10.5,73,0.00,,,0.00,WUHU21623XXSP,2013-02-24 18:00:00,
2013-02-24 13:05:00,34.7,26.9,30.01,NNW,337,7.6,10.5,73,0.00,,,0.00,WUHU21623XXSP,2013-02-24 18:05:00,
2013-02-24 13:10:00,34.9,26.7,30.01,North,0,7.4,7.6,72,0.00,,,0.00,WUHU21623XXSP,2013-02-24 18:10:00,
2013-02-24 13:15:00,35.2,27.1,30.01,SSW,202,7.8,7.8,72,0.00,,,0.00,WUHU21623XXSP,2013-02-24 18:15:00,
2013-02-24 13:20:00,35.2,26.7,30.01,SSW,202,0.0,7.8,71,0.00,,,0.00,WUHU21623XXSP,2013-02-24 18:20:00,
2013-02-24 13:25:00,35.2,26.7,30.01,NNW,337,8.7,8.7,71,0.00,,,0.00,WUHU21623XXSP,2013-02-24 18:25:00,
2013-02-24 13:30:00,35.2,26.7,30.01,SW,225,1.6,8.7,71,0.00,,,0.00,WUHU21623XXSP,2013-02-24 18:30:00,
2013-02-24 13:35:00,34.9,26.1,30.01,SSW,202,0.0,6.9,70,0.00,,,0.00,WUHU21623XXSP,2013-02-24 18:35:00,
2013-02-24 13:40:00,34.9,26.1,30.01,North,0,0.0,6.9,70,0.00,,,0.00,WUHU21623XXSP,2013-02-24 18:40:00,
2013-02-24 13:45:00,34.7,25.9,30.01,SW,225,11.4,11.4,70,0.00,,,0.00,WUHU21623XXSP,2013-02-24 18:45:00,
2013-02-24 13:50:00,34.5,25.7,30.01,SSW,202,0.0,11.4,70,0.00,,,0.00,WUHU21623XXSP,2013-02-24 18:50:00,
2013-02-24 13:55:00,34.5,26.0,30.01,SW,225,3.1,5.4,71,0.00,,,0.00,WUHU21623XXSP,2013-02-24 18:55:00,
2013-02-24 14:00:00,34.9,26.4,30.01,SSW,202,2.7,5.4,71,0.00,,,0.00,WUHU21623XXSP,2013-02-24 19:00:00,
2013-02-24 14:05:00,34.9,26.4,30.01,NNW,337,5.4,5.4,71,0.00,,,0.00,WUHU21623XXSP,2013-02-24 19:05:00,
2013-02-24 14:10:00,35.1,26.6,30.01,SW,225,0.0,5.4,71,0.00,,,0.00,WUHU21623XXSP,2013-02-24 19:10:00,
2013-02-24 14:15:00,35.1,26.6,30.01,SSW,202,0.0,4.3,71,0.00,,,0.00,WUHU21623XXSP,2013-02-24 19:15:00,
2013-02-24 14:20:00,34.9,26.1,30.01,North,0,8.1,8.1,70,0.00,,,0.00,WUHU21623XXSP,2013-02-24 19:20:00,
2013-02-24 14:25:00,34.7,25.9,30.01,North,0,4.3,8.1,70,0.00,,,0.00,WUHU21623XXSP,2013-02-24 19:25:00,
2013-02-24 14:30:00,34.5,25.7,30.02,North,0,7.4,7.4,70,0.00,,,0.00,WUHU21623XXSP,2013-02-24 19:30:00,
2013-02-24 14:35:00,34.5,25.7,30.02,NNW,337,4.3,7.4,70,0.00,,,0.00,WUHU21623XXSP,2013-02-24 19:35:00,
2013-02-24 14:40:00,34.9,26.1,30.01,NNW,337,4.5,7.4,70,0.00,,,0.00,WUHU21623XXSP,2013-02-24 19:40:00,
2013-02-24 14:45:00,35.2,26.1,30.02,SSW,202,4.3,7.4,69,0.00,,,0.00,WUHU21623XXSP,2013-02-24 19:45:00,
2013-02-24 14:50:00,35.6,26.8,30.02,North,0,6.5,7.2,70,0.00,,,0.00,WUHU21623XXSP,2013-02-24 19:50:00,
2013-02-24 14:55:00,35.8,26.6,30.02,SSW,202,0.9,6.5,69,0.00,,,0.00,WUHU21623XXSP,2013-02-24 19:55:00,
2013-02-24 15:00:00,35.8,26.8,30.02,NNW,337,12.1,12.1,69,0.00,,,0.00,WUHU21623XXSP,2013-02-24 20:00:00,
2013-02-24 15:05:00,35.6,26.1,30.03,North,0,1.1,12.1,68,0.00,,,0.00,WUHU21623XXSP,2013-02-24 20:05:00,
2013-02-24 15:10:00,35.2,25.7,30.03,NNW,337,6.3,12.1,68,0.00,,,0.00,WUHU21623XXSP,2013-02-24 20:10:00,
2013-02-24 15:15:00,35.2,26.1,30.02,North,0,7.6,7.6,69,0.00,,,0.00,WUHU21623XXSP,2013-02-24 20:15:00,
2013-02-24 15:20:00,35.2,25.7,30.02,SSW,202,3.1,7.6,68,0.00,,,0.00,WUHU21623XXSP,2013-02-24 20:20:00,
2013-02-24 15:25:00,35.4,25.9,30.03,SSW,202,1.6,5.1,68,0.00,,,0.00,WUHU21623XXSP,2013-02-24 20:25:00,
2013-02-24 15:30:00,35.8,25.9,30.03,NNW,337,5.8,5.8,67,0.00,,,0.00,WUHU21623XXSP,2013-02-24 20:30:00,
2013-02-24 15:35:00,35.8,25.9,30.03,SW,225,0.0,5.8,67,0.00,,,0.00,WUHU21623XXSP,2013-02-24 20:35:00,
2013-02-24 15:40:00,35.8,26.2,30.04,North,0,8.5,8.5,68,0.00,,,0.00,WUHU21623XXSP,2013-02-24 20:40:00,
2013-02-24 15:45:00,35.4,25.5,30.04,NNW,337,6.9,8.5,67,0.00,,,0.00,WUHU21623XXSP,2013-02-24 20:45:00,
2013-02-24 15:50:00,36.0,26.0,30.03,SSW,202,0.0,7.4,67,0.00,,,0.00,WUHU21623XXSP,2013-02-24 20:50:00,
2013-02-24 15:55:00,37.0,26.7,30.03,SW,225,0.0,1.1,67,0.00,,,0.00,WUHU21623XXSP,2013-02-24 20:55:00,
2013-02-24 16:00:00,37.8,27.4,30.04,SW,225,3.8,3.8,66,0.00,,,0.00,WUHU21623XXSP,2013-02-24 21:00:00,
2013-02-24 16:05:00,38.1,27.0,30.04,North,0,6.5,6.5,64,0.00,,,0.00,WUHU21623XXSP,2013-02-24 21:05:00,
2013-02-24 16:10:00,38.3,26.9,30.04,SSW,202,2.0,6.5,62,0.00,,,0.00,WUHU21623XXSP,2013-02-24 21:10:00,
2013-02-24 16:15:00,38.5,26.5,30.05,NNW,337,0.0,2.0,62,0.00,,,0.00,WUHU21623XXSP,2013-02-24 21:15:00,
2013-02-24 16:20:00,38.3,26.4,30.05,North,0,5.4,5.4,62,0.00,,,0.00,WUHU21623XXSP,2013-02-24 21:20:00,
2013-02-24 16:25:00,37.9,26.0,30.05,SSW,202,2.0,6.5,62,0.00,,,0.00,WUHU21623XXSP,2013-02-24 21:25:00,
2013-02-24 16:30:00,37.9,26.0,30.05,SSW,202,2.0,6.5,63,0.00,,,0.00,WUHU21623XXSP,2013-02-24 21:30:00,
2013-02-24 16:35:00,37.9,26.0,30.05,SSW,202,2.0,2.0,62,0.00,,,0.00,WUHU21623XXSP,2013-02-24 21:35:00,
2013-02-24 16:40:00,37.9,26.0,30.05,SW,225,8.3,8.3,62,0.00,,,0.00,WUHU21623XXSP,2013-02-24 21:40:00,
2013-02-24 16:45:00,37.6,25.9,30.06,SSW,202,0.0,8.3,62,0.00,,,0.00,WUHU21623XXSP,2013-02-24 21:45:00,
2013-02-24 16:50:00,37.4,25.6,30.06,North,0,0.0,8.3,62,0.00,,,0.00,WUHU21623XXSP,2013-02-24 21:50:00,
2013-02-24 16:55:00,37.2,25.6,30.06,North,0,0.0,0.0,62,0.00,,,0.00,WUHU21623XXSP,2013-02-24 21:55:00,
2013-02-24 17:00:00,36.9,25.2,30.06,SSW,202,5.1,5.1,62,0.00,,,0.00,WUHU21623XXSP,2013-02-24 22:00:00,
2013-02-24 17:05:00,36.7,24.9,30.06,SSW,202,0.0,5.1,62,0.00,,,0.00,WUHU21623XXSP,2013-02-24 22:05:00,
2013-02-24 17:10:00,36.3,24.5,30.06,SSW,202,0.0,5.1,62,0.00,,,0.00,WUHU21623XXSP,2013-02-24 22:10:00,
2013-02-24 17:15:00,36.1,24.7,30.06,NNW,337,4.0,4.0,63,0.00,,,0.00,WUHU21623XXSP,2013-02-24 22:15:00,
2013-02-24 17:20:00,36.1,24.7,30.06,North,0,5.1,5.1,63,0.00,,,0.00,WUHU21623XXSP,2013-02-24 22:20:00,
2013-02-24 17:25:00,35.6,24.4,30.07,NNW,337,8.3,8.3,62,0.00,,,0.00,WUHU21623XXSP,2013-02-24 22:25:00,
2013-02-24 17:30:00,35.4,23.7,30.07,NNW,337,2.9,8.3,62,0.00,,,0.00,WUHU21623XXSP,2013-02-24 22:30:00,
2013-02-24 17:35:00,35.2,23.5,30.07,SSW,202,0.0,8.3,62,0.00,,,0.00,WUHU21623XXSP,2013-02-24 22:35:00,
2013-02-24 17:40:00,34.9,23.2,30.07,North,0,0.0,2.9,62,0.00,,,0.00,WUHU21623XXSP,2013-02-24 22:40:00,
2013-02-24 17:45:00,34.7,23.0,30.08,North,0,0.0,2.2,62,0.00,,,0.00,WUHU21623XXSP,2013-02-24 22:45:00,
2013-02-24 17:50:00,34.3,23.2,30.08,North,0,0.0,2.2,63,0.00,,,0.00,WUHU21623XXSP,2013-02-24 22:50:00,
2013-02-24 17:55:00,34.3,23.0,30.08,NNW,337,0.0,1.6,63,0.00,,,0.00,WUHU21623XXSP,2013-02-24 22:55:00,
2013-02-24 18:00:00,34.2,22.8,30.08,North,0,0.0,1.6,63,0.00,,,0.00,WUHU21623XXSP,2013-02-24 23:00:00,
2013-02-24 18:05:00,33.8,22.8,30.08,North,0,0.0,0.0,64,0.00,,,0.00,WUHU21623XXSP,2013-02-24 23:05:00,
2013-02-24 18:10:00,33.4,22.7,30.08,North,0,0.0,0.0,64,0.00,,,0.00,WUHU21623XXSP,2013-02-24 23:10:00,
2013-02-24 18:15:00,33.4,22.5,30.09,NNW,337,4.9,4.9,65,0.00,,,0.00,WUHU21623XXSP,2013-02-24 23:15:00,
2013-02-24 18:20:00,33.1,22.7,30.09,NNW,337,2.2,4.9,65,0.00,,,0.00,WUHU21623XXSP,2013-02-24 23:20:00,
2013-02-24 18:25:00,32.7,22.2,30.09,NNW,337,0.0,2.2,65,0.00,,,0.00,WUHU21623XXSP,2013-02-24 23:25:00,
2013-02-24 18:30:00,32.4,22.0,30.09,NNW,337,0.0,2.2,65,0.00,,,0.00,WUHU21623XXSP,2013-02-24 23:30:00,
2013-02-24 18:35:00,31.8,22.1,30.09,NNW,337,0.0,0.0,66,0.00,,,0.00,WUHU21623XXSP,2013-02-24 23:35:00,
2013-02-24 18:40:00,31.5,21.7,30.09,NNW,337,0.0,0.0,67,0.00,,,0.00,WUHU21623XXSP,2013-02-24 23:40:00,
2013-02-24 18:45:00,31.1,21.4,30.09,NNW,337,0.0,0.0,67,0.00,,,0.00,WUHU21623XXSP,2013-02-24 23:45:00,
2013-02-24 18:50:00,30.9,21.2,30.09,NNW,337,0.0,0.0,67,0.00,,,0.00,WUHU21623XXSP,2013-02-24 23:50:00,
2013-02-24 18:55:00,30.6,21.2,30.09,NNW,337,0.0,0.0,68,0.00,,,0.00,WUHU21623XXSP,2013-02-24 23:55:00,
2013-02-24 19:00:00,30.2,21.2,30.09,NNW,337,0.0,0.0,69,0.00,,,0.00,WUHU21623XXSP,2013-02-25 00:00:00,
2013-02-24 19:05:00,30.0,21.0,30.10,NNW,337,0.0,0.0,69,0.00,,,0.00,WUHU21623XXSP,2013-02-25 00:05:00,
2013-02-24 19:10:00,29.5,20.6,30.10,NNW,337,0.0,0.0,69,0.00,,,0.00,WUHU21623XXSP,2013-02-25 00:10:00,
2013-02-24 19:15:00,29.3,20.4,30.10,NNW,337,0.0,0.0,69,0.00,,,0.00,WUHU21623XXSP,2013-02-25 00:15:00,
2013-02-24 19:20:00,28.9,20.1,30.10,NNW,337,0.0,0.0,69,0.00,,,0.00,WUHU21623XXSP,2013-02-25 00:20:00,
2013-02-24 19:25:00,28.6,20.1,30.11,NNW,337,0.0,0.0,70,0.00,,,0.00,WUHU21623XXSP,2013-02-25 00:25:00,
2013-02-24 19:30:00,28.4,19.9,30.11,NNW,337,0.0,0.0,70,0.00,,,0.00,WUHU21623XXSP,2013-02-25 00:30:00,
2013-02-24 19:35:00,28.2,19.8,30.11,NNW,337,0.0,0.0,70,0.00,,,0.00,WUHU21623XXSP,2013-02-25 00:35:00,
2013-02-24 19:40:00,28.2,19.8,30.11,NNW,337,0.0,0.0,70,0.00,,,0.00,WUHU21623XXSP,2013-02-25 00:40:00,
2013-02-24 19:45:00,27.7,19.5,30.11,NNW,337,0.0,0.0,71,0.00,,,0.00,WUHU21623XXSP,2013-02-25 00:45:00,
2013-02-24 19:50:00,27.5,19.3,30.11,NNW,337,0.0,0.0,71,0.00,,,0.00,WUHU21623XXSP,2013-02-25 00:50:00,
2013-02-24 19:55:00,27.1,19.0,30.11,NNW,337,0.0,0.0,71,0.00,,,0.00,WUHU21623XXSP,2013-02-25 00:55:00,
2013-02-24 20:00:00,27.1,19.0,30.12,NNW,337,0.0,0.0,71,0.00,,,0.00,WUHU21623XXSP,2013-02-25 01:00:00,
2013-02-24 20:05:00,27.1,19.0,30.12,NNW,337,0.0,0.0,71,0.00,,,0.00,WUHU21623XXSP,2013-02-25 01:05:00,
2013-02-24 20:10:00,27.1,19.3,30.12,NNW,337,0.0,0.0,72,0.00,,,0.00,WUHU21623XXSP,2013-02-25 01:10:00,
2013-02-24 20:15:00,27.1,19.6,30.12,NNW,337,0.0,0.0,73,0.00,,,0.00,WUHU21623XXSP,2013-02-25 01:15:00,
2013-02-24 20:20:00,27.0,19.4,30.12,NNW,337,0.0,0.0,73,0.00,,,0.00,WUHU21623XXSP,2013-02-25 01:20:00,
2013-02-24 20:25:00,26.8,19.2,30.12,NNW,337,0.0,0.0,73,0.00,,,0.00,WUHU21623XXSP,2013-02-25 01:25:00,
2013-02-24 20:30:00,26.6,19.1,30.11,NNW,337,0.0,0.0,73,0.00,,,0.00,WUHU21623XXSP,2013-02-25 01:30:00,
2013-02-24 20:35:00,26.4,18.9,30.12,NNW,337,0.0,0.0,73,0.00,,,0.00,WUHU21623XXSP,2013-02-25 01:35:00,
2013-02-24 20:40:00,26.1,18.5,30.12,NNW,337,0.0,0.0,73,0.00,,,0.00,WUHU21623XXSP,2013-02-25 01:40:00,
2013-02-24 20:45:00,25.7,18.2,30.12,NNW,337,0.0,0.0,73,0.00,,,0.00,WUHU21623XXSP,2013-02-25 01:45:00,
2013-02-24 20:50:00,25.5,18.0,30.12,NNW,337,0.0,0.0,73,0.00,,,0.00,WUHU21623XXSP,2013-02-25 01:50:00,
2013-02-24 20:55:00,25.2,17.8,30.12,NNW,337,0.0,0.0,73,0.00,,,0.00,WUHU21623XXSP,2013-02-25 01:55:00,
2013-02-24 21:00:00,25.0,17.5,30.12,NNW,337,0.0,0.0,73,0.00,,,0.00,WUHU21623XXSP,2013-02-25 02:00:00,
2013-02-24 21:05:00,24.6,17.5,30.12,NNW,337,0.0,0.0,73,0.00,,,0.00,WUHU21623XXSP,2013-02-25 02:05:00,
2013-02-24 21:10:00,24.4,17.1,30.12,NNW,337,0.0,0.0,73,0.00,,,0.00,WUHU21623XXSP,2013-02-25 02:10:00,
2013-02-24 21:15:00,24.3,17.1,30.12,NNW,337,0.0,0.0,74,0.00,,,0.00,WUHU21623XXSP,2013-02-25 02:15:00,
2013-02-24 21:20:00,24.1,17.0,30.12,NNW,337,0.0,0.0,74,0.00,,,0.00,WUHU21623XXSP,2013-02-25 02:20:00,
2013-02-24 21:25:00,23.9,16.8,30.12,NNW,337,0.0,0.0,74,0.00,,,0.00,WUHU21623XXSP,2013-02-25 02:25:00,
2013-02-24 21:30:00,23.5,16.4,30.12,NNW,337,0.0,0.0,74,0.00,,,0.00,WUHU21623XXSP,2013-02-25 02:30:00,
2013-02-24 21:35:00,23.5,16.8,30.12,NNW,337,0.0,0.0,75,0.00,,,0.00,WUHU21623XXSP,2013-02-25 02:35:00,
2013-02-24 21:40:00,23.2,16.1,30.12,NNW,337,0.0,0.0,74,0.00,,,0.00,WUHU21623XXSP,2013-02-25 02:40:00,
2013-02-24 21:45:00,23.0,15.9,30.12,NNW,337,0.0,0.0,74,0.00,,,0.00,WUHU21623XXSP,2013-02-25 02:45:00,
2013-02-24 21:50:00,22.8,15.8,30.13,NNW,337,0.0,0.0,74,0.00,,,0.00,WUHU21623XXSP,2013-02-25 02:50:00,
2013-02-24 21:55:00,22.8,16.1,30.13,NNW,337,0.0,0.0,75,0.00,,,0.00,WUHU21623XXSP,2013-02-25 02:55:00,
2013-02-24 22:00:00,22.6,15.9,30.13,NNW,337,0.0,0.0,75,0.00,,,0.00,WUHU21623XXSP,2013-02-25 03:00:00,
2013-02-24 22:05:00,22.5,15.7,30.13,NNW,337,0.0,0.0,75,0.00,,,0.00,WUHU21623XXSP,2013-02-25 03:05:00,
2013-02-24 22:10:00,22.1,15.5,30.12,NNW,337,0.0,0.0,75,0.00,,,0.00,WUHU21623XXSP,2013-02-25 03:10:00,
2013-02-24 22:15:00,22.1,15.3,30.13,NNW,337,0.0,0.0,75,0.00,,,0.00,WUHU21623XXSP,2013-02-25 03:15:00,
2013-02-24 22:20:00,21.9,15.2,30.13,NNW,337,0.0,0.0,75,0.00,,,0.00,WUHU21623XXSP,2013-02-25 03:20:00,
2013-02-24 22:25:00,21.9,15.2,30.13,NNW,337,0.0,0.0,76,0.00,,,0.00,WUHU21623XXSP,2013-02-25 03:25:00,
2013-02-24 22:30:00,21.9,15.5,30.13,North,0,0.0,0.0,76,0.00,,,0.00,WUHU21623XXSP,2013-02-25 03:30:00,
2013-02-24 22:35:00,22.3,16.1,30.13,North,0,0.0,0.0,77,0.00,,,0.00,WUHU21623XXSP,2013-02-25 03:35:00,
2013-02-24 22:40:00,22.6,16.8,30.14,North,0,0.0,0.0,78,0.00,,,0.00,WUHU21623XXSP,2013-02-25 03:40:00,
2013-02-24 22:45:00,22.8,17.3,30.14,North,0,0.0,0.0,79,0.00,,,0.00,WUHU21623XXSP,2013-02-25 03:45:00,
2013-02-24 22:50:00,22.8,17.3,30.14,North,0,0.0,0.0,79,0.00,,,0.00,WUHU21623XXSP,2013-02-25 03:50:00,
2013-02-24 22:55:00,23.2,18.0,30.14,North,0,0.0,0.0,80,0.00,,,0.00,WUHU21623XXSP,2013-02-25 03:55:00,
2013-02-24 23:00:00,23.2,18.0,30.14,North,0,0.0,0.0,80,0.00,,,0.00,WUHU21623XXSP,2013-02-25 04:00:00,
2013-02-24 23:05:00,23.4,18.1,30.14,SSW,202,0.0,0.0,80,0.00,,,0.00,WUHU21623XXSP,2013-02-25 04:05:00,
2013-02-24 23:10:00,23.0,18.0,30.14,SSW,202,0.0,0.0,79,0.00,,,0.00,WUHU21623XXSP,2013-02-25 04:10:00,
2013-02-24 23:15:00,22.8,17.3,30.14,SSW,202,0.0,0.0,79,0.00,,,0.00,WUHU21623XXSP,2013-02-25 04:15:00,
2013-02-24 23:20:00,22.8,17.3,30.13,SSW,202,0.0,0.0,79,0.00,,,0.00,WUHU21623XXSP,2013-02-25 04:20:00,
2013-02-24 23:25:00,22.3,16.4,30.13,SSW,202,0.0,0.0,78,0.00,,,0.00,WUHU21623XXSP,2013-02-25 04:25:00,
2013-02-24 23:30:00,22.1,16.3,30.14,SSW,202,0.0,0.0,78,0.00,,,0.00,WUHU21623XXSP,2013-02-25 04:30:00,
2013-02-24 23:35:00,21.9,16.1,30.13,SSW,202,0.0,0.0,78,0.00,,,0.00,WUHU21623XXSP,2013-02-25 04:35:00,
2013-02-24 23:40:00,21.4,15.5,30.13,SSW,202,0.0,0.0,78,0.00,,,0.00,WUHU21623XXSP,2013-02-25 04:40:00,
2013-02-24 23:45:00,21.4,15.5,30.13,SSW,202,0.0,0.0,78,0.00,,,0.00,WUHU21623XXSP,2013-02-25 04:45:00,
2013-02-24 23:50:00,21.0,15.5,30.13,SSW,202,0.0,0.0,79,0.00,,,0.00,WUHU21623XXSP,2013-02-25 04:50:00,
2013-02-24 23:55:00,20.8,15.3,30.14,SSW,202,0.0,0.0,79,0.00,,,0.00,WUHU21623XXSP,2013-02-25 04:55:00,